Погода в Именеве

Россия / Чувашская Республика     55°47′12″N   47°18′32″E
темп.,
°C
ветер,
м/с
пор.,
м/с
влажн.,
%
обл.,
%
осадки,
мм/ч
давл.,
гПа
погр.,
м
4 декабря, сб
сб400:00+2ю61495100 0.0 1007485
03:00+4ююз81693100 0.0 1004665
06:00+4ююз91986100 0.0 1001856
09:00+3ююз101897100 1.6 10011159
12:00+1зюз61188100 0.8 1004805
15:000зюз6118059 0.8 1006529
18:00−2зюз6118276 0.0 1008693
21:00−2зюз6108099 0.1 10091132
5 декабря, вс
вс500:00−3зюз6118377 0.0 1010709
03:00−3з598797 0.1 1012796
06:00−3з588599 0.1 1013810
09:00−4з588198 0.1 1015832
12:00−3зсз5771100 0.1 10171010
15:00−3зсз4674100 0.1 1018875
18:00−4сз3575100 0.0 1019697
21:00−5сз237670 0.0 1020495
6 декабря, пн
пн600:00−5с22838 0.0 1022218
03:00−6ссв228331 0.0 1023200
06:00−7всв22835 0.0 1023192
09:00−7всв228382 0.0 1025204
12:00−6в228074 0.0 1026294
15:00−6всв338361 0.0 1027250
18:00−7в358558 0.0 1028231
21:00−7в468531 0.0 1029245
7 декабря, вт
вт700:00−7в3684100 0.0 1030255
03:00−7в488370 0.0 1030291
06:00−7вюв51081100 0.0 1030305
09:00−7вюв61279100 0.0 1030380
12:00−5вюв71475100 0.0 1029479
15:00−4юв81673100 0.0 1027565
18:00−4юв91888100 0.3 1025657
21:00−4юв91894100 2.3 1022604
8 декабря, ср
ср800:00−2ююв81692100 4.1 1020523
03:00+1ю71696100 5.6 1018503
06:00+2ю71696100 0.9 1018502
09:00+3ю61497100 0.9 1019470
12:00+3ю51497100 0.0 1019474
15:00+2ю51294100 0.0 1019311
18:00+1ююв51290100 0.0 1020282
21:000ююв51188100 0.0 1020276